sat.trackr.live / text

‹ back to catalog

LKW-4

NORAD 43236 · 2018-025A

PAYLOAD ACTIVE UNKNOWN

§ Identity

Operator
Country
PRC
Launch date
2018-03-17
Launch site
JSC
Launch vehicle
Mass (kg)
RCS (m²)

External: N2YO · Heavens-Above · Gunter

§ Orbital elements

Epoch: 2026-05-25T00:09:19.249056Z

Period
92.29 min
Inclination
97.6339°
Eccentricity
0.0002535
Mean motion
15.60263154 rev/d
Perigee alt
385.2 km
Apogee alt
388.6 km
Semi-major
6,765.0 km
B*
4.5408e-4
RAAN
314.1014°
Arg perigee
50.1213°
Mean anomaly
310.0266°
Rev number
45,641

§ Raw data

LKW-41 43236U 18025A   26145.00647279  .00037043  00000+0  45408-3 0  99972 43236  97.6339 314.1014 0002535  50.1213 310.0266 15.60263154456419

JSON: /api/v1/satellites/43236 · /tle

For live sub-satellite position, see the globe view (requires WebGL).

§ Visibility from observer

Set your observer location to see the next 7 days of passes ≥ 10°. The values pass through the URL so the page stays shareable.

No JS? Fill the form by hand. The geolocation button needs JavaScript.

§ Radio — SatNOGS DB

ModeDescriptionDownlinkUplink
FM S-band telemetry 2.228 GHz
FM Telemetry 401.750 MHz

2 transmitters · refreshed weekly from db.satnogs.org